Tracking 29892 objects as of 21-Nov-2024
HD Live streaming from Space Station
objects crossing your sky now

LES 8

Track LES 8 now!
LES 8 is classified as:


NORAD ID: 8746
Int'l Code: 1976-023A
Perigee: 35,663.4 km
Apogee: 35,921.9 km
Inclination: 21.3 °
Period: 1,436.0 minutes
Semi major axis: 42163 km
RCS: 1.7833 m2 (large)
Launch date: March 15, 1976
Source: United States (US)
Launch site: AIR FORCE EASTERN TEST RANGE (AFETR)
Your satellite tracking list
Your tracking list is empty




NASA's NSSDC Master Catalog

Two Line Element Set (TLE):
1  8746U 76023A   24325.27377557 -.00000096  00000-0  00000+0 0  9997
2  8746  21.3198  44.3645 0030649 147.1854 219.0886  1.00275712123925
Source of the keplerian elements: AFSPC